Regional Weather Roundup
Issued by NWS

Home | Current Version | Previous Version | Graphics & Text | Print | Product List | Glossary On
Versions: 1 2 3 4 5 6 7 8 9 10 11 12 13 14 15 16 17 18 19 20 21 22 23 24 25 26 27 28 29 30 31 32 33 34 35 36 37 38 39 40 41 42 43 44 45 46 47 48 49 50
298
ASUS45 KBOI 301410
RWRID

IDAHO REGIONAL WEATHER ROUNDUP
NATIONAL WEATHER SERVICE BOISE ID
800 AM MDT THU MAR 30 2017

NOTE: "FAIR" INDICATES FEW OR NO CLOUDS BELOW 12000 FEET
WITH NO SIGNIFICANT WEATHER AND/OR OBSTRUCTIONS TO VISIBILITY

IDZ012-014-301500-
SOUTHWEST IDAHO


CITY           SKY/WX    TMP DP  RH WIND       PRES   REMARKS
BOISE          RAIN      45  44  97 W6        29.73R FOG
CALDWELL       RAIN      40  38  93 W30G39    29.76R FOG     WCI  28
MOUNTAIN HOME  LGT RAIN  50  50 100 E7        29.68F FOG
$$

IDZ016-017-301500-
SOUTHCENTRAL IDAHO


CITY           SKY/WX    TMP DP  RH WIND       PRES   REMARKS
BURLEY         CLOUDY    45  40  82 S6        29.73F
JEROME         CLOUDY    44  44 100 E6        29.74F
TWIN FALLS     LGT RAIN  43  41  93 SE7       29.73F
$$

IDZ019>023-301500-
SOUTHEAST IDAHO


CITY           SKY/WX    TMP DP  RH WIND       PRES   REMARKS
IDAHO FALLS    CLOUDY    43  41  93 S7        29.77S
POCATELLO      CLOUDY    44  41  89 SW14      29.78F
REXBURG        CLOUDY    42  39  89 S13       29.76F
$$

IDZ006-010-011-018-031-032-301500-
CENTRAL IDAHO MOUNTAINS


CITY           SKY/WX    TMP DP  RH WIND       PRES   REMARKS
MCCALL         CLOUDY    34  31  88 NW8       29.72R WCI  27
HAILEY         CLOUDY    36  34  93 CALM      29.75F
STANLEY          N/A     32  31  96 SE8       29.72F WCI  25
SALMON         MOCLDY    37  36  93 CALM      29.75F
CHALLIS        CLOUDY    37  37 100 CALM      29.73F
$$

IDZ002-004-006-007-026-301500-
NORTHERN IDAHO


CITY           SKY/WX    TMP DP  RH WIND       PRES   REMARKS
LEWISTON       CLOUDY    47  36  65 W9        29.88R
LOWELL           N/A     43  41  93 CALM      29.88R
COEUR D`ALENE  CLEAR     36  35  96 S6        29.84R WCI  31
MULLAN PASS    FOG       30  30 100 CALM      29.77S VSB<1/4
$$




USA.gov is the U.S. government's official web portal to all federal, state and local government web resources and services.